Location: Unspecified
(0.0000°N, 0.0000°E)
Time: 10:38:57
(UTC+00:00)

Explorer 11/Cluster Stage 4 - Pass Details

Date: 07 October 2020
Orbit: 467 x 1258 km, 28.8° (Epoch: 28 October)

Event Time Altitude Azimuth Distance (km) Brightness Sun altitude
Rises 08:33:04 0° 246° (WSW) 4,172 9.9 41.1°
Reaches altitude 10° 08:39:10 10° 213° (SSW) 3,231 9.6 42.6°
Maximum altitude 08:41:05 11° 199° (SSW) 3,152 9.7 43.1°
Drops below altitude 10° 08:43:00 10° 185° (S) 3,203 9.8 43.5°
Sets 08:48:57 0° 151° (SSE) 4,054 10.6 45.0°
